Location: El Águila
(10.4167°N, 66.7167°W)
Time: 20:53:26
(UTC+00:00)

SWIFT - Pass Details

Date: 05 April 2023
Orbit: 527 x 541 km, 20.6° (Epoch: 30 May)

Event Time Altitude Azimuth Distance (km) Brightness Sun altitude
Rises 00:12:03 0° 285° (WNW) 2,638 7.2 -23.8°
Reaches altitude 10° 00:14:41 10° 301° (WNW) 1,751 5.8 -24.4°
Maximum altitude 00:17:52 22° 353° (N) 1,179 4.1 -25.2°
Enters shadow 00:18:00 22° 356° (N) 1,181 4.1 -25.2°
